This is the latest recevied weather packets stored in our database for station/object W1BKW. If no packets are shown the sender has not sent any weather packets the latest 10 day(s).
| Time | Temp. | Humidity | Pressure | Rain* | Wind** | Luminosity | Snow |
|---|---|---|---|---|---|---|---|
| 1777869736 | 1.11° C | 87% | 1005.6 hPa | 0 mm | - | 0 W/m² | - |
| 1777868834 | 1.11° C | 86% | 1005.8 hPa | 0 mm | - | 0 W/m² | - |
| 1777867934 | 1.67° C | 85% | 1005.7 hPa | 0 mm | - | 0 W/m² | - |
| 1777867030 | 2.22° C | 84% | 1005.7 hPa | 0 mm | - | 0 W/m² | - |
| 1777866128 | 2.22° C | 80% | 1005.5 hPa | 0 mm | - | 0 W/m² | - |
| 1777865225 | 3.33° C | 79% | 1005.5 hPa | 0 mm | - | 0 W/m² | - |
| 1777864321 | 3.89° C | 75% | 1005.5 hPa | 0 mm | - | 0 W/m² | - |
| 1777863417 | 4.44° C | 70% | 1005.4 hPa | 0 mm | - | 0 W/m² | - |
| 1777862513 | 5° C | 69% | 1005.4 hPa | 0 mm | - | 0 W/m² | - |
| 1777861608 | 5.56° C | 69% | 1005.2 hPa | 0 mm | - | 0 W/m² | - |
| 1777860704 | 5° C | 68% | 1005.3 hPa | 0 mm | - | 0 W/m² | - |
| 1777859800 | 5° C | 68% | 1005.4 hPa | 0 mm | - | 0 W/m² | - |
| 1777858896 | 6.11° C | 64% | 1005.4 hPa | 0 mm | - | 0 W/m² | - |
| 1777857993 | 6.11° C | 61% | 1005.3 hPa | 0 mm | - | 0 W/m² | - |
| 1777857090 | 7.22° C | 58% | 1005.1 hPa | 0 mm | - | 0 W/m² | - |
| 1777856191 | 7.22° C | 56% | 1004.9 hPa | 0 mm | - | 0 W/m² | - |
| 1777855288 | 7.22° C | 58% | 1004.9 hPa | 0 mm | - | 0 W/m² | - |
| 1777854384 | 7.78° C | 57% | 1004.5 hPa | 0 mm | - | 0 W/m² | - |
| 1777853480 | 7.78° C | 55% | 1004.5 hPa | 0 mm | - | 0 W/m² | - |
| 1777852580 | 7.78° C | 54% | 1004.4 hPa | 0 mm | - | 0 W/m² | - |
| 1777851678 | 8.33° C | 54% | 1004.1 hPa | 0 mm | - | 1 W/m² | - |
| 1777850773 | 8.33° C | 52% | 1003.6 hPa | 0 mm | - | 8 W/m² | - |
| 1777849870 | 8.89° C | 52% | 1003.6 hPa | 0 mm | - | 20 W/m² | - |
| 1777848968 | 8.89° C | 54% | 1003.5 hPa | 0 mm | - | 18 W/m² | - |
| 1777848063 | 8.89° C | 50% | 1003.4 hPa | 0 mm | - | 28 W/m² | - |
* Rain latest hour (hover to see other rain measurements)
** Current wind speed in m/s (hover to see current wind gust speed)